Home   Weather   Erkelenz   Past weeks
Flag for Germany

Past Weather in Erkelenz, North Rhine-Westphalia, Germany — Yesterday and Last 2 Weeks

Now
50 °F

Passing clouds.


Feels Like: 47 °F
Forecast: 68 / 49 °F
Wind: 7 mph from Southeast

Location: Monchengladbach Airport

Current Time: Apr 6, 2020 at 8:38:57 am

Latest Report: Apr 6, 2020 at 7:50 am


Visibility: N/A

Pressure: 30.07 "Hg

Humidity: 54%

Dew Point: 34 °F

Location of ErkelenzLocation

Past Weather in Erkelenz — Graph

°F

Erkelenz Temperature Yesterday

Maximum temperature yesterday: 68 °F (at 4:20 pm)
Minimum temperature yesterday: 36 °F (at 6:20 am)
Average temperature yesterday: 53 °F

High & Low Weather Summary for the Past Weeks

 TemperatureHumidityPressure
High68 °F (Apr 5, 4:20 pm)93% (Mar 30, 7:20 am)30.51 "Hg (Mar 30, 7:20 am)
Low23 °F (Mar 30, 7:20 am)22% (Mar 24, 2:50 pm)29.86 "Hg (Apr 3, 1:20 am)
Average43 °F55%30.24 "Hg
* Reported Mar 22 6:20 am — Apr 6 7:20 am, Erkelenz. Weather by CustomWeather, © 2020

Note: Actual official high and low records may vary slightly from our data, if they occured in-between our weather recording intervals... More about our weather records

Erkelenz Weather History for the Previous 24 Hours

Scroll right to see more
 ConditionsComfort  
Time TempWeatherWind HumidityBarometerVisibility
7:20 am
Mon, Apr 6
48 °FSunny.7 mph58%30.04 "HgN/A
6:50 am48 °FSunny.7 mph58%30.04 "HgN/A
6:20 am43 °FSunny.7 mph71%30.04 "HgN/A
5:50 am45 °FSunny.7 mph66%30.04 "HgN/A
5:20 am46 °FSunny.7 mph62%30.04 "HgN/A
4:50 am45 °FSunny.7 mph66%30.04 "HgN/A
4:20 am45 °FSunny.8 mph66%30.04 "HgN/A
3:50 am46 °FSunny.6 mph57%30.04 "HgN/A
3:20 am50 °FSunny.7 mph54%30.04 "HgN/A
2:50 am50 °FSunny.6 mph54%30.04 "HgN/A
2:20 am46 °FSunny.6 mph62%30.07 "HgN/A
1:50 am46 °FSunny.5 mph62%30.07 "HgN/A
1:20 am46 °FSunny.5 mph62%30.07 "HgN/A
12:50 am48 °FSunny.5 mph58%30.07 "HgN/A
12:20 am54 °FSunny.7 mph44%30.07 "HgN/A
11:50 pm
Sun, Apr 5
55 °FSunny.7 mph44%30.07 "HgN/A
11:20 pm50 °FSunny.6 mph54%30.07 "HgN/A
10:50 pm55 °FSunny.7 mph44%30.07 "HgN/A
10:20 pm54 °FSunny.5 mph47%30.07 "HgN/A
9:20 pm57 °FClear.7 mph41%30.07 "HgN/A
8:50 pm61 °FClear.7 mph36%30.07 "HgN/A
8:20 pm61 °FClear.7 mph34%30.07 "HgN/A
7:50 pm64 °FClear.8 mph30%30.07 "HgN/A
7:20 pm64 °FPassing clouds.9 mph30%30.07 "HgN/A
6:50 pm66 °FPassing clouds.10 mph28%30.07 "HgN/A
6:20 pm66 °FPassing clouds.12 mph28%30.07 "HgN/A
5:50 pm66 °FPassing clouds.10 mph28%30.07 "HgN/A
5:20 pm66 °FPassing clouds.14 mph24%30.09 "HgN/A
4:50 pm68 °FClear.13 mph24%30.09 "HgN/A
4:20 pm68 °FClear.14 mph24%30.09 "HgN/A
3:20 pm66 °FPassing clouds.12 mph30%30.12 "HgN/A
2:50 pm64 °FPassing clouds.15 mph32%30.12 "HgN/A
2:20 pm64 °FPassing clouds.15 mph30%30.15 "HgN/A
1:50 pm63 °FClear.17 mph32%30.15 "Hg10 mi
1:20 pm63 °FClear.16 mph32%30.15 "Hg10 mi
12:50 pm63 °FClear.17 mph32%30.18 "Hg10 mi
12:20 pm61 °FClear.14 mph36%30.18 "Hg10 mi
11:50 am59 °FClear.15 mph42%30.18 "Hg10 mi
11:20 am57 °FSunny.13 mph44%30.21 "Hg10 mi
10:50 am55 °FSunny.12 mph47%30.21 "Hg10 mi
10:20 am54 °FSunny.10 mph51%30.21 "Hg10 mi
9:50 am52 °FSunny.9 mph54%30.21 "Hg10 mi
9:20 am50 °FSunny.7 mph58%30.24 "Hg10 mi
8:50 am48 °FSunny.8 mph58%30.24 "Hg10 mi
8:20 am45 °FSunny.7 mph66%30.24 "Hg10 mi
Weather by CustomWeather, © 2020

See weather overview

Advertising